iso_date,epoch_date,Year,Hour,Min,DOY,POS_DOY,Lat,Lon,BP,Ts,Ta,has_bp,has_ts,has_ta,BuoyID,Buoy_Type,Buoy_Owner,Logistics,Hemisphere
2016-02-12T01:59:31Z,1455242371,2016,2,0,43.083,43.083,-65.3476,-139.19479,990.1,4.39,-999.0,yes,yes,no,300234063241570,BD2GI,AOML,USCG,South
2016-02-12T03:00:00Z,1455246000,2016,3,0,43.125,43.125,-65.0848,-138.9378,989.3,1.59,-999.0,yes,yes,no,300234063241570,BD2GI,AOML,USCG,South
2016-02-12T04:00:28Z,1455249629,2016,4,0,43.167,43.167,-65.0246,-138.88161,989.6,0.42,-999.0,yes,yes,no,300234063241570,BD2GI,AOML,USCG,South
2016-02-12T04:59:31Z,1455253171,2016,5,0,43.208,43.208,-65.0208,-138.88139,989.4,0.39,-999.0,yes,yes,no,300234063241570,BD2GI,AOML,USCG,South
2016-02-12T06:00:00Z,1455256800,2016,6,0,43.25,43.25,-65.0162,-138.8878,989.8,0.38,-999.0,yes,yes,no,300234063241570,BD2GI,AOML,USCG,South
2016-02-12T07:00:28Z,1455260429,2016,7,0,43.292,43.292,-65.0132,-138.8992,989.6,0.38,-999.0,yes,yes,no,300234063241570,BD2GI,AOML,USCG,South
2016-02-12T07:59:31Z,1455263971,2016,8,0,43.333,43.333,-65.0116,-138.91319,989.5,0.36,-999.0,yes,yes,no,300234063241570,BD2GI,AOML,USCG,South
2016-02-12T09:00:00Z,1455267600,2016,9,0,43.375,43.375,-65.0114,-138.9266,989.3,0.36,-999.0,yes,yes,no,300234063241570,BD2GI,AOML,USCG,South
2016-02-12T10:00:28Z,1455271229,2016,10,0,43.417,43.417,-65.0128,-138.9382,989.5,0.35,-999.0,yes,yes,no,300234063241570,BD2GI,AOML,USCG,South
2016-02-12T10:59:31Z,1455274771,2016,11,0,43.458,43.458,-65.0162,-138.9474,989.5,0.34,-999.0,yes,yes,no,300234063241570,BD2GI,AOML,USCG,South
2016-02-12T12:00:00Z,1455278400,2016,12,0,43.5,43.5,-65.0188,-138.9516,989.8,0.35,-999.0,yes,yes,no,300234063241570,BD2GI,AOML,USCG,South
2016-02-12T13:00:28Z,1455282029,2016,13,0,43.542,43.542,-65.0218,-138.95039,990.1,0.34,-999.0,yes,yes,no,300234063241570,BD2GI,AOML,USCG,South
2016-02-12T13:59:31Z,1455285571,2016,14,0,43.583,43.583,-65.0232,-138.948,990.3,0.33,-999.0,yes,yes,no,300234063241570,BD2GI,AOML,USCG,South
2016-02-12T15:00:00Z,1455289200,2016,15,0,43.625,43.625,-65.0226,-138.9404,990.6,0.33,-999.0,yes,yes,no,300234063241570,BD2GI,AOML,USCG,South
2016-02-12T16:00:28Z,1455292829,2016,16,0,43.667,43.667,-65.0202,-138.9342,991.2,0.33,-999.0,yes,yes,no,300234063241570,BD2GI,AOML,USCG,South
2016-02-12T16:59:31Z,1455296371,2016,17,0,43.708,43.708,-65.016,-138.931,991.6,0.34,-999.0,yes,yes,no,300234063241570,BD2GI,AOML,USCG,South
2016-02-12T18:00:00Z,1455300000,2016,18,0,43.75,43.75,-65.0112,-138.93179,992.1,0.35,-999.0,yes,yes,no,300234063241570,BD2GI,AOML,USCG,South
2016-02-12T19:00:28Z,1455303629,2016,19,0,43.792,43.792,-65.007,-138.9348,992.8,0.33,-999.0,yes,yes,no,300234063241570,BD2GI,AOML,USCG,South
2016-02-12T19:59:31Z,1455307171,2016,20,0,43.833,43.833,-65.0028,-138.94119,993.4,0.35,-999.0,yes,yes,no,300234063241570,BD2GI,AOML,USCG,South
2016-02-12T21:00:00Z,1455310800,2016,21,0,43.875,43.875,-65.0012,-138.9512,994.1,0.35,-999.0,yes,yes,no,300234063241570,BD2GI,AOML,USCG,South
2016-02-12T22:00:28Z,1455314429,2016,22,0,43.917,43.917,-65.0008,-138.963,994.9,0.36,-999.0,yes,yes,no,300234063241570,BD2GI,AOML,USCG,South
2016-02-12T22:59:31Z,1455317971,2016,23,0,43.958,43.958,-65.0012,-138.97279,995.7,0.38,-999.0,yes,yes,no,300234063241570,BD2GI,AOML,USCG,South
2016-02-13T00:00:00Z,1455321600,2016,0,0,44.0,44.0,-65.003,-138.9792,996.6,0.36,-999.0,yes,yes,no,300234063241570,BD2GI,AOML,USCG,South
2016-02-13T01:00:28Z,1455325229,2016,1,0,44.042,44.042,-65.0056,-138.9836,997.4,0.37,-999.0,yes,yes,no,300234063241570,BD2GI,AOML,USCG,South
2016-02-13T01:59:31Z,1455328771,2016,2,0,44.083,44.083,-65.008,-138.9834,998.2,0.36,-999.0,yes,yes,no,300234063241570,BD2GI,AOML,USCG,South
2016-02-13T03:00:00Z,1455332400,2016,3,0,44.125,44.125,-65.0094,-138.9796,998.9,0.35,-999.0,yes,yes,no,300234063241570,BD2GI,AOML,USCG,South
2016-02-13T04:00:28Z,1455336029,2016,4,0,44.167,44.167,-65.009,-138.9752,999.8,0.34,-999.0,yes,yes,no,300234063241570,BD2GI,AOML,USCG,South
2016-02-13T04:59:31Z,1455339571,2016,5,0,44.208,44.208,-65.0088,-138.96919,1000.8,0.34,-999.0,yes,yes,no,300234063241570,BD2GI,AOML,USCG,South
2016-02-13T06:00:00Z,1455343200,2016,6,0,44.25,44.25,-65.005,-138.96539,1001.9,0.33,-999.0,yes,yes,no,300234063241570,BD2GI,AOML,USCG,South
2016-02-13T07:00:28Z,1455346829,2016,7,0,44.292,44.292,-65.0016,-138.965,1002.5,0.33,-999.0,yes,yes,no,300234063241570,BD2GI,AOML,USCG,South
2016-02-13T07:59:31Z,1455350371,2016,8,0,44.333,44.333,-64.9976,-138.9682,1003.1,0.33,-999.0,yes,yes,no,300234063241570,BD2GI,AOML,USCG,South
2016-02-13T09:00:00Z,1455354000,2016,9,0,44.375,44.375,-64.9948,-138.97459,1003.5,0.33,-999.0,yes,yes,no,300234063241570,BD2GI,AOML,USCG,South
2016-02-13T10:00:28Z,1455357629,2016,10,0,44.417,44.417,-64.993,-138.98061,1004.0,0.33,-999.0,yes,yes,no,300234063241570,BD2GI,AOML,USCG,South
2016-02-13T10:59:31Z,1455361171,2016,11,0,44.458,44.458,-64.993,-138.9874,1004.3,0.32,-999.0,yes,yes,no,300234063241570,BD2GI,AOML,USCG,South
2016-02-13T12:00:00Z,1455364800,2016,12,0,44.5,44.5,-64.9948,-138.9926,1004.7,0.33,-999.0,yes,yes,no,300234063241570,BD2GI,AOML,USCG,South
2016-02-13T13:00:28Z,1455368429,2016,13,0,44.542,44.542,-64.9964,-138.99361,1005.0,0.32,-999.0,yes,yes,no,300234063241570,BD2GI,AOML,USCG,South
2016-02-13T13:59:31Z,1455371971,2016,14,0,44.583,44.583,-64.9982,-138.9926,1005.5,0.32,-999.0,yes,yes,no,300234063241570,BD2GI,AOML,USCG,South
2016-02-13T15:00:00Z,1455375600,2016,15,0,44.625,44.625,-65.0002,-138.9886,1005.8,0.33,-999.0,yes,yes,no,300234063241570,BD2GI,AOML,USCG,South
2016-02-13T16:00:28Z,1455379229,2016,16,0,44.667,44.667,-65.0016,-138.98441,1006.2,0.32,-999.0,yes,yes,no,300234063241570,BD2GI,AOML,USCG,South
2016-02-13T16:59:31Z,1455382771,2016,17,0,44.708,44.708,-65.0016,-138.9758,1006.6,0.34,-999.0,yes,yes,no,300234063241570,BD2GI,AOML,USCG,South
2016-02-13T18:00:00Z,1455386400,2016,18,0,44.75,44.75,-64.9994,-138.96741,1007.2,0.34,-999.0,yes,yes,no,300234063241570,BD2GI,AOML,USCG,South
2016-02-13T19:00:28Z,1455390029,2016,19,0,44.792,44.792,-64.9966,-138.9622,1007.6,0.34,-999.0,yes,yes,no,300234063241570,BD2GI,AOML,USCG,South
2016-02-13T19:59:31Z,1455393571,2016,20,0,44.833,44.833,-64.993,-138.9596,1008.1,0.34,-999.0,yes,yes,no,300234063241570,BD2GI,AOML,USCG,South
2016-02-13T21:00:00Z,1455397200,2016,21,0,44.875,44.875,-64.989,-138.9606,1008.6,0.35,-999.0,yes,yes,no,300234063241570,BD2GI,AOML,USCG,South
2016-02-13T22:00:28Z,1455400829,2016,22,0,44.917,44.917,-64.9866,-138.9642,1008.9,0.35,-999.0,yes,yes,no,300234063241570,BD2GI,AOML,USCG,South
2016-02-13T22:59:31Z,1455404371,2016,23,0,44.958,44.958,-64.9854,-138.9696,1009.1,0.35,-999.0,yes,yes,no,300234063241570,BD2GI,AOML,USCG,South
2016-02-14T00:00:00Z,1455408000,2016,0,0,45.0,45.0,-64.985,-138.974,1009.2,0.36,-999.0,yes,yes,no,300234063241570,BD2GI,AOML,USCG,South
2016-02-14T01:00:28Z,1455411629,2016,1,0,45.042,45.042,-64.9856,-138.97819,1009.5,0.36,-999.0,yes,yes,no,300234063241570,BD2GI,AOML,USCG,South
2016-02-14T01:59:31Z,1455415171,2016,2,0,45.083,45.083,-64.9876,-138.9808,1009.5,0.36,-999.0,yes,yes,no,300234063241570,BD2GI,AOML,USCG,South
2016-02-14T03:00:00Z,1455418800,2016,3,0,45.125,45.125,-64.9906,-138.97861,1009.6,0.36,-999.0,yes,yes,no,300234063241570,BD2GI,AOML,USCG,South
2016-02-14T04:00:28Z,1455422429,2016,4,0,45.167,45.167,-64.9934,-138.9734,1009.7,0.35,-999.0,yes,yes,no,300234063241570,BD2GI,AOML,USCG,South
2016-02-14T04:59:31Z,1455425971,2016,5,0,45.208,45.208,-64.9946,-138.9646,1009.6,0.34,-999.0,yes,yes,no,300234063241570,BD2GI,AOML,USCG,South
2016-02-14T06:00:00Z,1455429600,2016,6,0,45.25,45.25,-64.9956,-138.9532,1009.8,0.34,-999.0,yes,yes,no,300234063241570,BD2GI,AOML,USCG,South
2016-02-14T07:00:28Z,1455433229,2016,7,0,45.292,45.292,-64.9944,-138.9418,1009.7,0.34,-999.0,yes,yes,no,300234063241570,BD2GI,AOML,USCG,South
2016-02-14T07:59:31Z,1455436771,2016,8,0,45.333,45.333,-64.9922,-138.9308,1009.7,0.34,-999.0,yes,yes,no,300234063241570,BD2GI,AOML,USCG,South
2016-02-14T09:00:00Z,1455440400,2016,9,0,45.375,45.375,-64.9876,-138.9252,1009.7,0.33,-999.0,yes,yes,no,300234063241570,BD2GI,AOML,USCG,South
2016-02-14T10:00:28Z,1455444029,2016,10,0,45.417,45.417,-64.9838,-138.9202,1009.5,0.33,-999.0,yes,yes,no,300234063241570,BD2GI,AOML,USCG,South
2016-02-14T10:59:31Z,1455447571,2016,11,0,45.458,45.458,-64.9806,-138.9174,1009.5,0.33,-999.0,yes,yes,no,300234063241570,BD2GI,AOML,USCG,South
2016-02-14T12:00:00Z,1455451200,2016,12,0,45.5,45.5,-64.978,-138.9164,1009.3,0.33,-999.0,yes,yes,no,300234063241570,BD2GI,AOML,USCG,South
2016-02-14T13:00:28Z,1455454829,2016,13,0,45.542,45.542,-64.9782,-138.9182,1008.9,0.33,-999.0,yes,yes,no,300234063241570,BD2GI,AOML,USCG,South
2016-02-14T13:59:31Z,1455458371,2016,14,0,45.583,45.583,-64.9796,-138.91701,1008.7,0.32,-999.0,yes,yes,no,300234063241570,BD2GI,AOML,USCG,South
2016-02-14T15:00:00Z,1455462000,2016,15,0,45.625,45.625,-64.9806,-138.914,1008.4,0.33,-999.0,yes,yes,no,300234063241570,BD2GI,AOML,USCG,South
2016-02-14T16:00:28Z,1455465629,2016,16,0,45.667,45.667,-64.9824,-138.9072,1007.9,0.33,-999.0,yes,yes,no,300234063241570,BD2GI,AOML,USCG,South
2016-02-14T16:59:31Z,1455469171,2016,17,0,45.708,45.708,-64.9844,-138.8978,1007.7,0.33,-999.0,yes,yes,no,300234063241570,BD2GI,AOML,USCG,South
2016-02-14T18:00:00Z,1455472800,2016,18,0,45.75,45.75,-64.9856,-138.886,1007.9,0.33,-999.0,yes,yes,no,300234063241570,BD2GI,AOML,USCG,South
2016-02-14T19:00:28Z,1455476429,2016,19,0,45.792,45.792,-64.9854,-138.87399,1007.9,0.33,-999.0,yes,yes,no,300234063241570,BD2GI,AOML,USCG,South
2016-02-14T19:59:31Z,1455479971,2016,20,0,45.833,45.833,-64.9844,-138.8622,1008.1,0.33,-999.0,yes,yes,no,300234063241570,BD2GI,AOML,USCG,South
2016-02-14T21:00:00Z,1455483600,2016,21,0,45.875,45.875,-64.9824,-138.85381,1008.3,0.33,-999.0,yes,yes,no,300234063241570,BD2GI,AOML,USCG,South
2016-02-14T22:00:28Z,1455487229,2016,22,0,45.917,45.917,-64.9786,-138.8436,1008.5,0.34,-999.0,yes,yes,no,300234063241570,BD2GI,AOML,USCG,South
2016-02-14T22:59:31Z,1455490771,2016,23,0,45.958,45.958,-64.9728,-138.8428,1008.5,0.34,-999.0,yes,yes,no,300234063241570,BD2GI,AOML,USCG,South
2016-02-15T00:00:00Z,1455494400,2016,0,0,46.0,46.0,-64.9702,-138.834,1008.6,0.33,-999.0,yes,yes,no,300234063241570,BD2GI,AOML,USCG,South
2016-02-15T01:00:28Z,1455498029,2016,1,0,46.042,46.042,-64.9678,-138.8358,1008.6,0.34,-999.0,yes,yes,no,300234063241570,BD2GI,AOML,USCG,South
2016-02-15T01:59:31Z,1455501571,2016,2,0,46.083,46.083,-64.9658,-138.8372,1008.6,0.34,-999.0,yes,yes,no,300234063241570,BD2GI,AOML,USCG,South
2016-02-15T03:00:00Z,1455505200,2016,3,0,46.125,46.125,-64.9652,-138.83681,1008.2,0.34,-999.0,yes,yes,no,300234063241570,BD2GI,AOML,USCG,South
2016-02-15T04:00:28Z,1455508829,2016,4,0,46.167,46.167,-64.9668,-138.838,1007.8,0.34,-999.0,yes,yes,no,300234063241570,BD2GI,AOML,USCG,South
2016-02-15T04:59:31Z,1455512371,2016,5,0,46.208,46.208,-64.9692,-138.8354,1007.4,0.34,-999.0,yes,yes,no,300234063241570,BD2GI,AOML,USCG,South
2016-02-15T06:00:00Z,1455516000,2016,6,0,46.25,46.25,-64.9718,-138.83,1007.1,0.33,-999.0,yes,yes,no,300234063241570,BD2GI,AOML,USCG,South
2016-02-15T07:00:28Z,1455519629,2016,7,0,46.292,46.292,-64.974,-138.8242,1006.1,0.33,-999.0,yes,yes,no,300234063241570,BD2GI,AOML,USCG,South
2016-02-15T07:59:31Z,1455523171,2016,8,0,46.333,46.333,-64.976,-138.8152,1005.3,0.33,-999.0,yes,yes,no,300234063241570,BD2GI,AOML,USCG,South
2016-02-15T09:00:00Z,1455526800,2016,9,0,46.375,46.375,-64.9762,-138.799,1004.1,0.33,-999.0,yes,yes,no,300234063241570,BD2GI,AOML,USCG,South
2016-02-15T10:00:28Z,1455530429,2016,10,0,46.417,46.417,-64.9752,-138.78301,1002.5,0.33,-999.0,yes,yes,no,300234063241570,BD2GI,AOML,USCG,South
2016-02-15T10:59:31Z,1455533971,2016,11,0,46.458,46.458,-64.971,-138.76739,1001.1,0.33,-999.0,yes,yes,no,300234063241570,BD2GI,AOML,USCG,South
2016-02-15T12:00:00Z,1455537600,2016,12,0,46.5,46.5,-64.9678,-138.758,999.7,0.32,-999.0,yes,yes,no,300234063241570,BD2GI,AOML,USCG,South
2016-02-15T13:00:28Z,1455541229,2016,13,0,46.542,46.542,-64.9642,-138.75281,996.7,0.31,-999.0,yes,yes,no,300234063241570,BD2GI,AOML,USCG,South
2016-02-15T13:59:31Z,1455544771,2016,14,0,46.583,46.583,-64.9626,-138.74899,993.1,0.32,-999.0,yes,yes,no,300234063241570,BD2GI,AOML,USCG,South
2016-02-15T15:00:00Z,1455548400,2016,15,0,46.625,46.625,-64.9628,-138.74361,991.8,0.31,-999.0,yes,yes,no,300234063241570,BD2GI,AOML,USCG,South
2016-02-15T16:00:28Z,1455552029,2016,16,0,46.667,46.667,-64.963,-138.7348,990.3,0.31,-999.0,yes,yes,no,300234063241570,BD2GI,AOML,USCG,South
2016-02-15T16:59:31Z,1455555571,2016,17,0,46.708,46.708,-64.9624,-138.7234,989.8,0.3,-999.0,yes,yes,no,300234063241570,BD2GI,AOML,USCG,South
2016-02-15T18:00:00Z,1455559200,2016,18,0,46.75,46.75,-64.96,-138.71001,990.3,0.3,-999.0,yes,yes,no,300234063241570,BD2GI,AOML,USCG,South
2016-02-15T19:00:28Z,1455562829,2016,19,0,46.792,46.792,-64.9568,-138.6978,991.5,0.29,-999.0,yes,yes,no,300234063241570,BD2GI,AOML,USCG,South
2016-02-15T19:59:31Z,1455566371,2016,20,0,46.833,46.833,-64.9522,-138.686,992.8,0.29,-999.0,yes,yes,no,300234063241570,BD2GI,AOML,USCG,South
2016-02-15T21:00:00Z,1455570000,2016,21,0,46.875,46.875,-64.9476,-138.67619,994.2,0.29,-999.0,yes,yes,no,300234063241570,BD2GI,AOML,USCG,South
2016-02-15T22:00:28Z,1455573629,2016,22,0,46.917,46.917,-64.9424,-138.66859,995.6,0.28,-999.0,yes,yes,no,300234063241570,BD2GI,AOML,USCG,South
2016-02-15T22:59:31Z,1455577171,2016,23,0,46.958,46.958,-64.936,-138.664,996.6,0.28,-999.0,yes,yes,no,300234063241570,BD2GI,AOML,USCG,South
2016-02-16T00:00:00Z,1455580800,2016,0,0,47.0,47.0,-64.9312,-138.6644,997.7,0.28,-999.0,yes,yes,no,300234063241570,BD2GI,AOML,USCG,South
2016-02-16T01:00:28Z,1455584429,2016,1,0,47.042,47.042,-64.928,-138.6704,998.3,0.28,-999.0,yes,yes,no,300234063241570,BD2GI,AOML,USCG,South
2016-02-16T01:59:31Z,1455587971,2016,2,0,47.083,47.083,-64.9256,-138.67641,998.9,0.28,-999.0,yes,yes,no,300234063241570,BD2GI,AOML,USCG,South
2016-02-16T03:00:00Z,1455591600,2016,3,0,47.125,47.125,-64.9252,-138.68159,999.3,0.28,-999.0,yes,yes,no,300234063241570,BD2GI,AOML,USCG,South
2016-02-16T04:00:28Z,1455595229,2016,4,0,47.167,47.167,-64.9266,-138.687,999.1,0.28,-999.0,yes,yes,no,300234063241570,BD2GI,AOML,USCG,South
2016-02-16T04:59:31Z,1455598771,2016,5,0,47.208,47.208,-64.9292,-138.6906,998.9,0.27,-999.0,yes,yes,no,300234063241570,BD2GI,AOML,USCG,South
2016-02-16T06:00:00Z,1455602400,2016,6,0,47.25,47.25,-64.9324,-138.6884,998.2,0.26,-999.0,yes,yes,no,300234063241570,BD2GI,AOML,USCG,South
2016-02-16T07:00:28Z,1455606029,2016,7,0,47.292,47.292,-64.9354,-138.68201,997.1,0.27,-999.0,yes,yes,no,300234063241570,BD2GI,AOML,USCG,South
2016-02-16T07:59:31Z,1455609571,2016,8,0,47.333,47.333,-64.9374,-138.67281,995.7,0.27,-999.0,yes,yes,no,300234063241570,BD2GI,AOML,USCG,South
2016-02-16T09:00:00Z,1455613200,2016,9,0,47.375,47.375,-64.9376,-138.66319,994.1,0.27,-999.0,yes,yes,no,300234063241570,BD2GI,AOML,USCG,South
2016-02-16T10:00:28Z,1455616829,2016,10,0,47.417,47.417,-64.936,-138.651,992.7,0.27,-999.0,yes,yes,no,300234063241570,BD2GI,AOML,USCG,South
2016-02-16T10:59:31Z,1455620371,2016,11,0,47.458,47.458,-64.933,-138.6414,992.2,0.27,-999.0,yes,yes,no,300234063241570,BD2GI,AOML,USCG,South
2016-02-16T12:00:00Z,1455624000,2016,12,0,47.5,47.5,-64.9292,-138.6338,991.5,0.27,-999.0,yes,yes,no,300234063241570,BD2GI,AOML,USCG,South
2016-02-16T13:00:28Z,1455627629,2016,13,0,47.542,47.542,-64.9248,-138.62801,991.2,0.27,-999.0,yes,yes,no,300234063241570,BD2GI,AOML,USCG,South
2016-02-16T13:59:31Z,1455631171,2016,14,0,47.583,47.583,-64.9208,-138.62579,990.8,0.27,-999.0,yes,yes,no,300234063241570,BD2GI,AOML,USCG,South
2016-02-16T15:00:00Z,1455634800,2016,15,0,47.625,47.625,-64.9188,-138.6256,990.5,0.27,-999.0,yes,yes,no,300234063241570,BD2GI,AOML,USCG,South
2016-02-16T16:00:28Z,1455638429,2016,16,0,47.667,47.667,-64.9178,-138.6256,989.9,0.27,-999.0,yes,yes,no,300234063241570,BD2GI,AOML,USCG,South
2016-02-16T16:59:31Z,1455641971,2016,17,0,47.708,47.708,-64.9176,-138.62399,989.3,0.27,-999.0,yes,yes,no,300234063241570,BD2GI,AOML,USCG,South
2016-02-16T18:00:00Z,1455645600,2016,18,0,47.75,47.75,-64.919,-138.62421,988.7,0.27,-999.0,yes,yes,no,300234063241570,BD2GI,AOML,USCG,South
2016-02-16T19:00:28Z,1455649229,2016,19,0,47.792,47.792,-64.9212,-138.62219,987.6,0.28,-999.0,yes,yes,no,300234063241570,BD2GI,AOML,USCG,South
2016-02-16T19:59:31Z,1455652771,2016,20,0,47.833,47.833,-64.9224,-138.615,986.6,0.27,-999.0,yes,yes,no,300234063241570,BD2GI,AOML,USCG,South
2016-02-16T21:00:00Z,1455656400,2016,21,0,47.875,47.875,-64.923,-138.6062,985.3,0.28,-999.0,yes,yes,no,300234063241570,BD2GI,AOML,USCG,South
2016-02-16T22:00:28Z,1455660029,2016,22,0,47.917,47.917,-64.923,-138.5974,984.5,0.28,-999.0,yes,yes,no,300234063241570,BD2GI,AOML,USCG,South
2016-02-16T22:59:31Z,1455663571,2016,23,0,47.958,47.958,-64.9222,-138.58521,983.5,0.27,-999.0,yes,yes,no,300234063241570,BD2GI,AOML,USCG,South
2016-02-17T00:00:00Z,1455667200,2016,0,0,48.0,48.0,-64.9204,-138.5742,982.8,0.28,-999.0,yes,yes,no,300234063241570,BD2GI,AOML,USCG,South
2016-02-17T01:00:28Z,1455670829,2016,1,0,48.042,48.042,-64.917,-138.5654,982.2,0.27,-999.0,yes,yes,no,300234063241570,BD2GI,AOML,USCG,South
2016-02-17T01:59:31Z,1455674371,2016,2,0,48.083,48.083,-64.913,-138.5592,982.0,0.27,-999.0,yes,yes,no,300234063241570,BD2GI,AOML,USCG,South
2016-02-17T03:00:00Z,1455678000,2016,3,0,48.125,48.125,-64.9084,-138.55679,981.7,0.27,-999.0,yes,yes,no,300234063241570,BD2GI,AOML,USCG,South
2016-02-17T04:00:28Z,1455681629,2016,4,0,48.167,48.167,-64.9044,-138.55859,981.9,0.27,-999.0,yes,yes,no,300234063241570,BD2GI,AOML,USCG,South
2016-02-17T04:59:31Z,1455685171,2016,5,0,48.208,48.208,-64.9016,-138.562,982.1,0.27,-999.0,yes,yes,no,300234063241570,BD2GI,AOML,USCG,South
2016-02-17T06:00:00Z,1455688800,2016,6,0,48.25,48.25,-64.9004,-138.5654,982.5,0.27,-999.0,yes,yes,no,300234063241570,BD2GI,AOML,USCG,South
2016-02-17T07:00:28Z,1455692429,2016,7,0,48.292,48.292,-64.8996,-138.56799,982.5,0.27,-999.0,yes,yes,no,300234063241570,BD2GI,AOML,USCG,South
2016-02-17T07:59:31Z,1455695971,2016,8,0,48.333,48.333,-64.9,-138.5708,982.5,0.27,-999.0,yes,yes,no,300234063241570,BD2GI,AOML,USCG,South
2016-02-17T09:00:00Z,1455699600,2016,9,0,48.375,48.375,-64.9006,-138.57359,982.5,0.26,-999.0,yes,yes,no,300234063241570,BD2GI,AOML,USCG,South
2016-02-17T10:00:28Z,1455703229,2016,10,0,48.417,48.417,-64.9012,-138.5726,983.1,0.26,-999.0,yes,yes,no,300234063241570,BD2GI,AOML,USCG,South
2016-02-17T10:59:31Z,1455706771,2016,11,0,48.458,48.458,-64.9014,-138.5706,983.5,0.25,-999.0,yes,yes,no,300234063241570,BD2GI,AOML,USCG,South
2016-02-17T12:00:00Z,1455710400,2016,12,0,48.5,48.5,-64.8992,-138.5692,983.6,0.25,-999.0,yes,yes,no,300234063241570,BD2GI,AOML,USCG,South
2016-02-17T13:00:28Z,1455714029,2016,13,0,48.542,48.542,-64.8966,-138.56779,983.4,0.25,-999.0,yes,yes,no,300234063241570,BD2GI,AOML,USCG,South
2016-02-17T13:59:31Z,1455717571,2016,14,0,48.583,48.583,-64.893,-138.5672,983.4,0.25,-999.0,yes,yes,no,300234063241570,BD2GI,AOML,USCG,South
2016-02-17T15:00:00Z,1455721200,2016,15,0,48.625,48.625,-64.8892,-138.56779,983.3,0.25,-999.0,yes,yes,no,300234063241570,BD2GI,AOML,USCG,South
2016-02-17T16:00:28Z,1455724829,2016,16,0,48.667,48.667,-64.8864,-138.57201,983.4,0.25,-999.0,yes,yes,no,300234063241570,BD2GI,AOML,USCG,South
2016-02-17T16:59:31Z,1455728371,2016,17,0,48.708,48.708,-64.884,-138.57919,983.7,0.25,-999.0,yes,yes,no,300234063241570,BD2GI,AOML,USCG,South
2016-02-17T18:00:00Z,1455732000,2016,18,0,48.75,48.75,-64.8824,-138.5864,983.3,0.25,-999.0,yes,yes,no,300234063241570,BD2GI,AOML,USCG,South
2016-02-17T19:00:28Z,1455735629,2016,19,0,48.792,48.792,-64.8826,-138.5928,983.2,0.25,-999.0,yes,yes,no,300234063241570,BD2GI,AOML,USCG,South
2016-02-17T19:59:31Z,1455739171,2016,20,0,48.833,48.833,-64.8836,-138.5986,983.0,0.26,-999.0,yes,yes,no,300234063241570,BD2GI,AOML,USCG,South
2016-02-17T21:00:00Z,1455742800,2016,21,0,48.875,48.875,-64.8856,-138.60159,982.9,0.27,-999.0,yes,yes,no,300234063241570,BD2GI,AOML,USCG,South
2016-02-17T22:00:28Z,1455746429,2016,22,0,48.917,48.917,-64.8874,-138.602,982.8,0.27,-999.0,yes,yes,no,300234063241570,BD2GI,AOML,USCG,South
2016-02-17T22:59:31Z,1455749971,2016,23,0,48.958,48.958,-64.889,-138.5992,982.7,0.27,-999.0,yes,yes,no,300234063241570,BD2GI,AOML,USCG,South
2016-02-18T00:00:00Z,1455753600,2016,0,0,49.0,49.0,-64.8896,-138.5938,982.6,0.26,-999.0,yes,yes,no,300234063241570,BD2GI,AOML,USCG,South
2016-02-18T01:00:28Z,1455757229,2016,1,0,49.042,49.042,-64.8892,-138.586,982.5,0.27,-999.0,yes,yes,no,300234063241570,BD2GI,AOML,USCG,South
2016-02-18T01:59:31Z,1455760771,2016,2,0,49.083,49.083,-64.8874,-138.5788,982.5,0.28,-999.0,yes,yes,no,300234063241570,BD2GI,AOML,USCG,South
2016-02-18T03:00:00Z,1455764400,2016,3,0,49.125,49.125,-64.884,-138.5734,982.3,0.27,-999.0,yes,yes,no,300234063241570,BD2GI,AOML,USCG,South
2016-02-18T04:00:28Z,1455768029,2016,4,0,49.167,49.167,-64.8802,-138.5724,982.2,0.26,-999.0,yes,yes,no,300234063241570,BD2GI,AOML,USCG,South
2016-02-18T04:59:31Z,1455771571,2016,5,0,49.208,49.208,-64.8762,-138.57359,982.0,0.25,-999.0,yes,yes,no,300234063241570,BD2GI,AOML,USCG,South
2016-02-18T06:00:00Z,1455775200,2016,6,0,49.25,49.25,-64.873,-138.5802,981.7,0.25,-999.0,yes,yes,no,300234063241570,BD2GI,AOML,USCG,South
2016-02-18T07:00:28Z,1455778829,2016,7,0,49.292,49.292,-64.8714,-138.5872,981.2,0.25,-999.0,yes,yes,no,300234063241570,BD2GI,AOML,USCG,South
2016-02-18T07:59:31Z,1455782371,2016,8,0,49.333,49.333,-64.8712,-138.5918,980.4,0.25,-999.0,yes,yes,no,300234063241570,BD2GI,AOML,USCG,South
2016-02-18T09:00:00Z,1455786000,2016,9,0,49.375,49.375,-64.8724,-138.5948,979.7,0.26,-999.0,yes,yes,no,300234063241570,BD2GI,AOML,USCG,South
2016-02-18T10:00:28Z,1455789629,2016,10,0,49.417,49.417,-64.8744,-138.595,978.9,0.25,-999.0,yes,yes,no,300234063241570,BD2GI,AOML,USCG,South
2016-02-18T10:59:31Z,1455793171,2016,11,0,49.458,49.458,-64.8766,-138.5918,978.3,0.24,-999.0,yes,yes,no,300234063241570,BD2GI,AOML,USCG,South
2016-02-18T12:00:00Z,1455796800,2016,12,0,49.5,49.5,-64.8784,-138.58479,977.4,0.25,-999.0,yes,yes,no,300234063241570,BD2GI,AOML,USCG,South
2016-02-18T13:00:28Z,1455800429,2016,13,0,49.542,49.542,-64.8788,-138.5726,976.5,0.24,-999.0,yes,yes,no,300234063241570,BD2GI,AOML,USCG,South
2016-02-18T13:59:31Z,1455803971,2016,14,0,49.583,49.583,-64.8774,-138.5598,975.5,0.24,-999.0,yes,yes,no,300234063241570,BD2GI,AOML,USCG,South
2016-02-18T15:00:00Z,1455807600,2016,15,0,49.625,49.625,-64.8742,-138.54739,974.2,0.25,-999.0,yes,yes,no,300234063241570,BD2GI,AOML,USCG,South
2016-02-18T16:00:28Z,1455811229,2016,16,0,49.667,49.667,-64.8706,-138.53799,972.6,0.25,-999.0,yes,yes,no,300234063241570,BD2GI,AOML,USCG,South
2016-02-18T16:59:31Z,1455814771,2016,17,0,49.708,49.708,-64.8662,-138.53059,971.1,0.25,-999.0,yes,yes,no,300234063241570,BD2GI,AOML,USCG,South
2016-02-18T18:00:00Z,1455818400,2016,18,0,49.75,49.75,-64.862,-138.5284,969.0,0.25,-999.0,yes,yes,no,300234063241570,BD2GI,AOML,USCG,South
2016-02-18T19:00:28Z,1455822029,2016,19,0,49.792,49.792,-64.86,-138.5298,966.8,0.25,-999.0,yes,yes,no,300234063241570,BD2GI,AOML,USCG,South
2016-02-18T19:59:31Z,1455825571,2016,20,0,49.833,49.833,-64.8586,-138.53239,965.0,0.25,-999.0,yes,yes,no,300234063241570,BD2GI,AOML,USCG,South
2016-02-18T21:00:00Z,1455829200,2016,21,0,49.875,49.875,-64.8584,-138.5336,963.8,0.25,-999.0,yes,yes,no,300234063241570,BD2GI,AOML,USCG,South
2016-02-18T22:00:28Z,1455832829,2016,22,0,49.917,49.917,-64.8592,-138.534,963.5,0.26,-999.0,yes,yes,no,300234063241570,BD2GI,AOML,USCG,South
2016-02-18T22:59:31Z,1455836371,2016,23,0,49.958,49.958,-64.8596,-138.53081,964.1,0.27,-999.0,yes,yes,no,300234063241570,BD2GI,AOML,USCG,South
2016-02-19T00:00:00Z,1455840000,2016,0,0,50.0,50.0,-64.8592,-138.52541,965.0,0.26,-999.0,yes,yes,no,300234063241570,BD2GI,AOML,USCG,South
2016-02-19T01:00:28Z,1455843629,2016,1,0,50.042,50.042,-64.858,-138.5184,966.0,0.27,-999.0,yes,yes,no,300234063241570,BD2GI,AOML,USCG,South